Location: Newark
(48.4472°N, 1.4892°E)
Time: 21:15:24
(UTC+00:00)

Vanguard 2 Rocket - Visible Passes

Search period start: 17 November 2019 00:00
Search period end: 27 November 2019 00:00
Orbit: 554 x 3326 km, 32.9° (Epoch: 16 November)

Date Brightness Start Highest point End Pass type
(mag) Time Alt. Az. Time Alt. Az. Time Alt. Az.
17 Nov 9.6 02:35:04 13° SE 02:35:04 13° SE 02:36:11 10° ESE visible
17 Nov 8.8 04:40:53 18° SSW 04:43:56 24° S 04:51:38 10° SE visible
18 Nov 8.8 03:44:49 21° S 03:44:49 21° S 03:50:40 10° SE visible
18 Nov 9.3 05:52:15 10° SW 05:57:26 18° SSW 06:04:29 10° SSE visible
19 Nov 9.5 02:48:45 12° SE 02:48:45 12° SE 02:49:48 10° SE visible
19 Nov 8.9 04:54:34 14° SW 04:57:46 19° S 05:04:02 10° SSE visible
20 Nov 8.9 03:58:31 18° S 03:58:31 18° S 04:03:30 10° SE visible
20 Nov 9.6 06:08:20 10° SW 06:11:17 12° SSW 06:14:44 10° S visible
21 Nov 9.5 03:02:28 11° SE 03:02:28 11° SE 03:03:02 10° SE visible
21 Nov 9.2 05:08:33 10° SW 05:11:38 13° SSW 05:15:23 10° SSE visible
22 Nov 9.1 04:12:15 13° S 04:12:15 13° S 04:15:35 10° SSE visible
